SCP
0 0 0 0 0 0 0 0 0 0 0 0 0 0 0 0 0 0 0 0 0 0
0 0 0 0 0 0 0 0 0 0 0 0 0 0 0 0 0 0 0 0 0 0
0 0 0 0 0 0 0 0 0 0 0 0 0 0 0 0 0 0 0 0 0 0
0 0 0 0 0 0 0 0 0 0 0 0 0 0 0 0 0 0 0 0 0 0
0 0 0 0 0 0 0 0 0 0 0 0 0 0 0 0 0 0 0 0 0 0
0 0 0 0 0 0 0 0 0 0 0 0 0 0 0 0 0 0 0 0 0 0
0 0 0 0 0 0 0 0 0 0 0 0 0 0 0 0 0 0 0 0 0 0
0 0 0 0 0 0 0 0 0 0 0 0 0 0 0 0 0 0 0 0 0 0
0 0 0 0 0 0 0 0 0 0 0 0 0 0 0 0 0 0 0 0 0 0
0 0 0 0 0 0 0 0 0 0 0 0 0 0 0 0 0 0 0 0 0 0
0 0 0 0 0 0 0 0 0 0 0 0 0 0 0 0 0 0 0 0 0 0
0 0 0 0 0 0 0 0 0 0 0 0 0 0 0 0 0 0 0 0 0 0
0 0 0 0 0 0 0 0 0 0 0 0 0 0 0 0 0 0 0 0 0 0
0 0 0 0 0 0 0 0 0 0 0 0 0 0 0 0 0 0 0 0 0 0
Wind_Speed_500mb
86 80 74 70 68 67 68 63 56 52 48 46 44 42 41 39 37 35 35 36 36 37
84 78 73 68 64 61 58 55 54 52 49 46 44 42 41 39 38 37 36 36 38 40
82 77 70 64 63 60 58 58 56 53 49 48 45 43 42 41 40 40 41 39 38 39
76 69 65 63 60 58 56 55 53 52 50 48 45 44 43 42 42 44 44 42 42 42
63 61 60 60 59 55 53 53 52 51 50 48 47 46 44 44 46 47 47 46 47 45
56 57 57 56 54 52 52 53 53 52 51 48 47 46 45 44 44 43 43 41 41 38
52 52 52 52 51 50 51 52 52 50 49 48 47 46 45 43 42 40 38 37 39 37
47 47 49 49 47 46 46 47 48 48 50 48 45 44 42 42 39 38 37 35 36 37
42 42 41 41 43 44 44 46 48 49 49 45 44 40 38 38 37 36 37 35 33 33
37 34 33 36 39 40 42 43 45 46 48 46 42 41 40 39 39 39 37 34 32 33
28 31 34 35 36 37 38 42 44 45 45 45 43 42 42 41 42 44 42 40 36 35
27 28 30 30 33 36 37 37 38 40 40 41 40 41 42 43 45 46 46 44 40 39
24 27 28 30 32 34 35 35 35 35 36 37 37 36 36 35 39 42 43 41 39 36
20 20 23 23 25 25 25 25 26 26 28 29 30 28 31 32 36 39 38 38 37 36
Wind_Direction_500mb
226 227 228 230 230 231 233 234 234 236 237 244 249 252 253 253 254 252 253 256 258 253
223 224 225 228 229 228 228 229 229 233 241 245 247 248 249 250 251 254 254 258 259 253
217 220 222 225 220 217 219 222 231 238 243 243 244 245 248 251 254 255 257 258 256 251
211 215 216 216 217 218 221 228 235 241 242 242 244 246 249 252 254 255 258 259 260 252
207 210 213 215 215 218 224 231 235 238 241 244 247 249 252 255 256 256 257 260 256 250
204 209 211 215 219 223 227 231 234 237 241 245 249 252 254 254 252 251 251 250 250 249
204 209 214 218 221 225 227 231 235 239 242 245 246 250 251 248 247 248 249 248 248 245
204 213 218 221 224 229 233 236 238 240 241 242 245 249 249 248 247 250 250 247 247 245
207 215 221 228 231 234 238 239 239 239 241 244 245 247 248 249 249 248 249 248 247 246
205 213 221 227 231 233 236 238 239 241 242 244 245 246 247 247 249 248 248 249 247 245
207 219 224 228 232 234 236 239 239 240 244 246 246 245 245 246 248 251 252 250 250 250
214 219 226 234 239 240 240 242 244 244 245 248 250 250 248 247 247 251 253 255 255 256
217 221 226 229 235 238 241 242 244 247 248 250 251 251 250 246 249 253 256 259 261 261
216 222 226 228 232 237 241 245 248 250 251 252 254 251 248 242 241 249 254 258 260 260
Wind_Speed_850mb
86 80 74 70 68 67 68 63 56 52 48 46 44 42 41 39 37 35 35 36 36 37
84 78 73 68 64 61 58 55 54 52 49 46 44 42 41 39 38 37 36 36 38 40
82 77 70 64 63 60 58 58 56 53 49 48 45 43 42 41 40 40 41 39 38 39
76 69 65 63 60 58 56 55 53 52 50 48 45 44 43 42 42 44 44 42 42 42
63 61 60 60 59 55 53 53 52 51 50 48 47 46 44 44 46 47 47 46 47 45
56 57 57 56 54 52 52 53 53 52 51 48 47 46 45 44 44 43 43 41 41 38
52 52 52 52 51 50 51 52 52 50 49 48 47 46 45 43 42 40 38 37 39 37
47 47 49 49 47 46 46 47 48 48 50 48 45 44 42 42 39 38 37 35 36 37
42 42 41 41 43 44 44 46 48 49 49 45 44 40 38 38 37 36 37 35 33 33
37 34 33 36 39 40 42 43 45 46 48 46 42 41 40 39 39 39 37 34 32 33
28 31 34 35 36 37 38 42 44 45 45 45 43 42 42 41 42 44 42 40 36 35
27 28 30 30 33 36 37 37 38 40 40 41 40 41 42 43 45 46 46 44 40 39
24 27 28 30 32 34 35 35 35 35 36 37 37 36 36 35 39 42 43 41 39 36
20 20 23 23 25 25 25 25 26 26 28 29 30 28 31 32 36 39 38 38 37 36
Wind_Direction_850mb
226 227 228 230 230 231 233 234 234 236 237 244 249 252 253 253 254 252 253 256 258 253
223 224 225 228 229 228 228 229 229 233 241 245 247 248 249 250 251 254 254 258 259 253
217 220 222 225 220 217 219 222 231 238 243 243 244 245 248 251 254 255 257 258 256 251
211 215 216 216 217 218 221 228 235 241 242 242 244 246 249 252 254 255 258 259 260 252
207 210 213 215 215 218 224 231 235 238 241 244 247 249 252 255 256 256 257 260 256 250
204 209 211 215 219 223 227 231 234 237 241 245 249 252 254 254 252 251 251 250 250 249
204 209 214 218 221 225 227 231 235 239 242 245 246 250 251 248 247 248 249 248 248 245
204 213 218 221 224 229 233 236 238 240 241 242 245 249 249 248 247 250 250 247 247 245
207 215 221 228 231 234 238 239 239 239 241 244 245 247 248 249 249 248 249 248 247 246
205 213 221 227 231 233 236 238 239 241 242 244 245 246 247 247 249 248 248 249 247 245
207 219 224 228 232 234 236 239 239 240 244 246 246 245 245 246 248 251 252 250 250 250
214 219 226 234 239 240 240 242 244 244 245 248 250 250 248 247 247 251 253 255 255 256
217 221 226 229 235 238 241 242 244 247 248 250 251 251 250 246 249 253 256 259 261 261
216 222 226 228 232 237 241 245 248 250 251 252 254 251 248 242 241 249 254 258 260 260